Location: Castaignos
(43.5863°N, 0.6508°W)
Time: 05:48:39
(UTC+00:00)

Daily predictions for brighter satellites

Satellite Brightness Start Highest point End
(mag) Time Altitude Azimuth Time Altitude Azimuth Time Altitude Azimuth
SL-16 R/B 3.9 00:06:04 24° WNW 00:06:47 25° NW 00:11:24 10° N
Cosmos 1844 Rocket 4.4 00:02:59 10° NW 00:05:29 23° WNW 00:05:29 23° WNW
USA 238 DEB 4.5 00:07:09 10° NW 00:12:47 46° W 00:12:47 46° W
USA 238 4.5 00:07:15 10° NW 00:12:54 46° W 00:12:54 46° W
Tsikada Rocket 4.3 00:30:35 60° NNW 00:30:35 60° NNW 00:35:37 10° N
USA 215 4.3 00:30:00 10° ENE 00:34:07 33° E 00:34:07 33° E
Lacrosse 5 4.0 00:35:37 20° NW 00:37:17 23° NNW 00:41:24 10° NE
Cosmos 2237 Rocket 3.1 00:59:39 42° ENE 00:59:39 42° ENE 01:03:51 10° NE
H-2A R/B 4.5 00:56:12 10° NNW 00:57:40 16° NW 00:57:40 16° NW
Cosmos 1980 4.5 01:02:35 45° ENE 01:02:35 45° ENE 01:06:52 10° NNE
IDEFIX/ARIANE 42P 4.1 01:00:04 10° NE 01:03:55 28° E 01:03:55 28° E
USA 267 4.4 01:04:20 10° E 01:10:18 40° NNE 01:16:18 10° NW
CZ-2D R/B 3.7 01:05:58 10° NE 01:10:23 26° E 01:10:23 26° E
Cosmos 2360 Rocket 4.3 01:10:54 16° WNW 01:12:06 17° NW 01:15:40 10° N
COSMOS 2428 3.3 01:13:37 50° NNW 01:13:37 50° NNW 01:18:24 10° NNE
Cosmos 2180 Rocket 4.5 01:13:58 10° N 01:19:58 80° NNW 01:19:58 80° NNW
Resurs 1-4 Rocket 3.3 01:17:43 10° NNE 01:22:17 34° E 01:22:17 34° E
Cosmos 2219 Rocket 3.8 01:23:12 24° NW 01:23:27 24° NW 01:27:55 10° N
Cosmos 2278 Rocket 2.8 01:28:20 10° NNW 01:32:30 49° NW 01:32:30 49° NW
Cosmos 1680 Rocket 3.9 01:42:34 60° ENE 01:42:34 60° ENE 01:47:20 10° NNE
Meteor 2-10 4.5 01:37:58 10° N 01:43:39 62° ENE 01:44:15 58° ESE
ADEOS II 3.2 01:42:02 10° NNE 01:46:49 35° E 01:47:24 34° ESE
RESURS DK-1 4.5 01:49:06 20° NNW 01:49:06 20° NNW 01:51:10 10° N
ATLAS 2AS CENTAUR R/B 2.9 01:49:36 58° SSE 01:50:44 66° ESE 01:57:51 10° NE
Nadezhda 4 Rocket 3.8 01:50:49 75° W 01:50:50 75° W 01:56:59 10° N
Cosmos 1943 Rocket 2.1 01:46:24 10° NNW 01:51:51 82° NNW 01:51:51 82° NNW
Cosmos 1428 Rocket 4.4 01:53:46 71° SSE 01:54:27 81° E 02:00:43 10° N
SL-16 R/B 2.9 01:54:58 42° ESE 01:55:30 43° ESE 02:00:49 10° NE
ATLAS 5 CENTAUR R/B 2.8 01:50:54 10° NNW 01:55:45 52° NE 02:01:45 10° SE
Cosmos 2056 Rocket 4.0 01:51:49 10° NNW 01:57:11 59° ENE 01:58:37 44° ESE
Cosmos 1340 Rocket 4.1 02:01:32 36° ENE 02:01:32 36° ENE 02:04:25 10° NNE
Meteor 1-27 Rocket 3.6 02:01:01 84° WSW 02:01:08 85° W 02:06:48 10° N
CZ-2C R/B 2.9 02:00:14 54° SE 02:01:15 66° ENE 02:06:31 10° N
Sich 1 4.1 01:58:45 10° N 02:01:28 39° NNW 02:01:28 39° NNW
GP-B 3.6 02:00:00 10° N 02:03:57 57° ENE 02:03:57 57° ENE
GEOS 3 Rocket 4.4 01:59:16 10° ESE 02:04:24 51° NE 02:09:32 10° NNW
SL-16 R/B 3.3 02:00:25 16° SE 02:05:12 49° ENE 02:11:11 10° N
Cosmos 1624 Rocket 4.2 02:01:55 10° NNW 02:07:08 69° ENE 02:08:03 56° ESE
ALOS 3.8 02:05:10 10° NE 02:09:08 28° E 02:10:18 25° ESE
Cosmos 1340 4.3 02:08:38 10° N 02:10:59 30° NE 02:10:59 30° NE
NPP 3.5 02:06:36 10° N 02:11:59 74° WNW 02:12:10 73° W
Cosmos 1805 4.3 02:10:35 10° N 02:13:21 41° NE 02:13:21 41° NE
USA 215 3.4 02:12:48 10° NE 02:19:17 67° NNW 02:21:28 43° W
Cosmos 923 Rocket 4.5 02:20:52 45° WNW 02:20:55 45° WNW 02:26:01 10° N
Lacrosse 5 4.4 02:18:21 10° NW 02:21:52 18° N 02:25:22 10° NE
COSMOS 2441 4.2 02:19:16 10° NNE 02:24:10 86° ESE 02:24:29 78° S
Cosmos 1666 Rocket 4.0 02:20:03 10° N 02:24:26 59° E 02:25:08 52° ESE
Cosmos 1553 Rocket 4.5 02:19:19 10° N 02:25:27 57° ENE 02:30:02 18° SSE
Meteor 1-11 Rocket 4.4 02:20:41 10° NNW 02:25:03 38° WNW 02:25:03 38° WNW
NOSS 3-1 (C) 4.1 02:22:02 10° NW 02:29:30 86° NE 02:38:32 10° SE
ATLAS 3B R/B 3.6 02:28:37 10° NNW 02:36:20 57° NE 02:43:57 10° SE
MSX 4.0 02:31:53 10° N 02:37:30 55° WNW 02:38:35 47° WSW
Cosmos 2026 Rocket 4.1 02:37:39 48° SW 02:39:10 61° W 02:45:31 10° N
Cosmos 1371 Rocket 4.0 02:34:22 10° NNW 02:39:33 61° WSW 02:39:56 59° SW
Cosmos 1656 Rocket 4.1 02:35:38 10° NNW 02:40:59 60° ENE 02:46:21 10° SE
Cosmos 1328 Rocket 3.5 02:41:11 65° SSE 02:41:48 80° E 02:46:14 10° N
Cosmos 1626 2.6 02:42:31 49° ENE 02:42:31 49° ENE 02:45:24 10° NNE
Cosmos 2237 Rocket 3.4 02:41:27 26° WNW 02:42:41 28° NW 02:47:34 10° N
USA 308 4.2 02:42:30 25° NW 02:43:05 26° NNW 02:46:24 10° NE
ISS -1.0 02:44:09 11° ESE 02:44:09 11° ESE 02:44:56 10° ESE
Cosmos 1092 Rocket 4.1 02:42:40 46° WSW 02:44:03 55° WNW 02:50:07 10° N
IDEFIX/ARIANE 42P 3.2 02:39:22 10° N 02:44:08 37° WNW 02:44:41 36° W
Cosmos 2344 4.4 02:35:38 10° NW 02:44:10 47° WSW 02:55:49 10° S
Cosmos 2369 Rocket 2.9 02:39:55 10° NNW 02:45:24 53° ENE 02:50:50 10° SE
Cosmos 1151 Rocket 3.9 02:47:21 36° WNW 02:47:21 36° WNW 02:50:59 10° N
Cosmos 921 Rocket 3.3 02:48:29 50° WNW 02:48:33 50° WNW 02:52:49 10° N
CZ-2C R/B 3.2 02:45:03 10° N 02:50:21 68° WNW 02:51:58 45° SW
CZ-2D R/B 2.6 02:45:30 10° N 02:50:37 44° WNW 02:51:41 40° W
Cosmos 1975 2.8 02:46:57 10° NNW 02:50:23 60° WNW 02:50:23 60° WNW
USA 267 3.1 02:46:28 10° SE 02:52:58 82° SW 02:59:32 10° NW
Cosmos 1633 Rocket 2.9 02:49:42 10° N 02:54:04 81° W 02:55:02 53° S
Cosmos 2297 3.8 02:48:18 10° NNW 02:54:06 82° ENE 02:59:50 10° SSE
SAR-Lupe-1 4.0 02:50:35 10° N 02:54:03 74° NW 02:54:03 74° NW
AQUA 3.8 02:50:59 10° N 02:55:41 65° WNW 02:56:42 51° SW
SAR-Lupe-4 3.6 02:54:50 10° N 02:58:13 61° WNW 02:58:13 61° WNW
Resurs 1-4 Rocket 3.0 02:57:34 10° N 03:02:15 33° WNW 03:03:21 30° W
Cosmos 494 Rocket 3.9 03:02:00 43° SW 03:03:37 70° WNW 03:08:44 10° NNE
Cosmos 1766 3.3 03:01:51 10° N 03:05:32 68° E 03:07:19 28° SSE
Meteor 2-4 Rocket 3.8 03:04:17 39° SW 03:06:06 56° WNW 03:11:39 10° N
Cosmos 1943 3.9 03:03:45 21° S 03:07:24 51° ESE 03:12:55 10° NE
Cosmos 1048 Rocket 3.9 03:09:34 35° SSW 03:11:52 80° WNW 03:17:08 10° NNE
FENGYUN 3A 4.0 03:07:09 10° N 03:12:21 49° WNW 03:14:21 33° WSW
UNK 3.6 03:10:15 26° S 03:12:49 71° WSW 03:17:27 10° NNW
USA 290 4.2 03:11:56 10° NW 03:13:01 18° NW 03:13:01 18° NW
Meteor 2-12 Rocket 4.4 03:16:17 27° SSW 03:19:38 65° W 03:25:42 10° N
CZ-2C R/B 3.2 03:17:16 10° NNE 03:22:19 51° E 03:27:13 10° S
USA 306 4.0 03:22:03 22° S 03:23:29 28° SE 03:26:38 10° ENE
ADEOS II 3.0 03:21:45 10° N 03:26:21 32° WNW 03:28:17 25° WSW
Cosmos 468 4.4 03:23:30 26° SSW 03:26:32 82° WNW 03:31:49 10° NNE
EO 1 Delta rocket 4.1 03:23:16 10° N 03:27:48 53° WNW 03:30:33 25° SW
Cosmos 1417 Rocket 4.5 03:23:18 10° NNW 03:29:40 74° W 03:35:59 10° S
Cosmos 1707 3.1 03:27:10 16° S 03:29:58 57° E 03:33:36 10° NNE
Cosmos 1842 3.0 03:32:03 23° S 03:34:15 87° W 03:38:01 10° N
IRS-1D 4.1 03:29:27 10° NNE 03:34:34 58° E 03:39:44 10° S
Cosmos 1943 Rocket 4.1 03:32:34 10° WNW 03:33:18 11° WNW 03:33:18 11° WNW
CZ-4 R/B 3.7 03:30:48 10° N 03:35:30 78° WNW 03:38:49 19° SSW
Cosmos 1110 Rocket 3.9 03:31:54 10° NNW 03:37:10 68° WSW 03:42:25 10° S
Cosmos 2266 Rocket 3.9 03:32:14 15° SSW 03:37:24 75° W 03:43:27 10° N
Cosmos 1603 4.2 03:34:08 11° S 03:39:19 59° ESE 03:44:53 10° NNE
ATLAS 5 CENTAUR R/B 3.0 03:35:03 10° WNW 03:39:40 29° WSW 03:45:07 10° S
SL-16 R/B 3.2 03:36:50 20° W 03:39:43 31° NW 03:44:45 10° N
YAOGAN 6 2.8 03:36:38 10° NNE 03:39:54 59° E 03:42:44 13° S
SL-08 ROCKET BODY 4.3 03:35:18 11° S 03:40:58 81° W 03:47:04 10° N
CZ-2C R/B 4.1 03:41:42 17° W 03:41:56 17° W 03:45:21 10° NW
ATLAS 2AS CENTAUR R/B 3.8 03:37:01 16° W 03:42:07 35° NW 03:48:34 10° NNE
GEOS 3 Rocket 4.3 03:37:47 10° S 03:42:31 32° WSW 03:47:15 10° NW
Cosmos 1515 Rocket 3.9 03:40:24 23° SW 03:42:51 49° WNW 03:47:10 10° N
S3M 4.0 03:37:05 10° NNW 03:43:15 69° W 03:49:29 10° S
Cosmos 1452 Rocket 3.6 03:40:26 10° NNW 03:45:34 55° WSW 03:50:39 10° S
ALOS 3.2 03:42:15 10° N 03:46:20 32° WNW 03:48:37 20° WSW
Cosmos 1869 Rocket 3.8 03:43:59 10° N 03:48:18 70° E 03:52:35 10° SSE
SL-16 R/B 3.4 03:45:30 18° SW 03:48:59 29° W 03:54:18 10° NW
Cosmos 1470 Rocket 4.3 03:45:28 10° NNW 03:49:26 33° W 03:52:04 18° SW
Envisat 3.0 03:46:11 10° N 03:51:14 66° WNW 03:55:52 12° SSW
Cosmos 1331 Rocket 4.3 03:57:18 10° NNW 04:02:19 44° WSW 04:07:17 10° S
Cosmos 2228 Rocket 4.1 03:58:17 10° SSE 04:02:29 47° E 04:06:42 10° NNE
NOSS 3-1 (A) 4.3 03:55:08 10° NW 04:02:34 55° WSW 04:11:19 10° SSE
Cosmos 1674 3.3 04:01:58 18° SW 04:03:53 31° WNW 04:07:00 10° NNW
Meteor 1-22 Rocket 4.4 04:00:33 10° N 04:06:05 74° ENE 04:11:25 10° SSE
Lacrosse 5 3.7 04:01:35 10° NW 04:06:13 33° NNE 04:10:49 10° E
Meteor 1-13 Rocket 4.3 04:01:06 10° SSW 04:06:52 78° W 04:12:47 10° N
METEOR-M 4.5 04:01:54 10° N 04:07:02 48° WNW 04:12:07 10° SW
CZ-3 R/B 4.1 03:50:13 14° SW 04:10:16 37° S 04:18:30 10° ESE
USA 229 DEB 4.2 04:04:52 10° NW 04:12:25 83° NE 04:20:33 10° SE
USA 229 4.2 04:04:58 10° NW 04:12:30 82° NE 04:20:37 10° SE
Cosmos 1908 3.0 04:09:23 10° NNW 04:12:58 59° W 04:16:31 10° S
USA 305 1.6 04:14:01 18° SSW 04:14:55 37° SE 04:16:44 10° ENE
DMSP B5D2-2 4.0 04:10:17 10° S 04:15:26 66° WSW 04:20:38 10° NNW
Cosmos 1933 Rocket 4.3 04:12:24 10° NNW 04:16:16 32° W 04:20:05 10° SSW
Cosmos 1470 3.4 04:14:40 10° NNW 04:18:05 32° W 04:21:28 10° SSW
Meteor 1-15 Rocket 4.3 04:12:27 10° N 04:18:22 86° W 04:24:10 10° S
Cosmos 1733 Rocket 4.0 04:14:28 10° N 04:18:44 53° E 04:22:56 10° SSE
ISS -3.8 04:17:01 13° SW 04:19:56 86° SSE 04:23:16 10° ENE
Cosmos 1862 Rocket 4.4 04:17:30 10° S 04:21:45 53° E 04:26:00 10° NNE
Cosmos 1655 Rocket 4.3 04:16:53 10° SSW 04:22:51 48° WNW 04:28:54 10° N
USA 276 2.9 04:22:02 10° SW 04:24:38 38° SE 04:27:22 10° ENE
ATLAS 3B R/B 3.4 04:19:48 10° NW 04:26:55 39° WSW 04:33:53 10° S
Cosmos 1300 3.5 04:24:40 10° N 04:28:11 52° E 04:31:41 10° SSE
Cosmos 2315 Rocket 4.3 04:23:07 10° NNW 04:28:58 45° W 04:34:49 10° SSW
Cosmos 2369 Rocket 3.2 04:24:42 10° NW 04:29:00 23° W 04:33:17 10° SSW
BREEZE-M DEB (TANK) 3.1 04:26:27 10° W 04:30:21 31° NNW 04:32:25 10° NE
Aureole 3 4.4 04:24:22 10° S 04:30:21 75° E 04:35:10 10° NNE
Gbstr 26 Del rocket 3.1 04:26:32 10° NW 04:30:29 66° NNE 04:34:10 10° ESE
Cosmos 1441 Rocket 3.4 04:27:43 10° N 04:31:29 74° E 04:35:10 10° SSE
Cosmos 614 Rocket 4.0 04:30:38 10° SSW 04:35:42 67° WNW 04:40:51 10° NNE
Chandra Rocket (1) 4.2 04:34:56 10° S 04:35:43 10° SSE 04:36:37 10° SSE
USA 267 4.3 04:31:45 10° S 04:36:36 22° WSW 04:41:28 10° WNW
Cosmos 44 3.2 04:36:00 10° NW 04:40:53 67° WSW 04:45:26 10° SSE
